Miscellaneous Local Product
Issued by NWS North Platte, NE

Home | Current Version | Previous Version | Text Only | Print | Product List | Glossary On
Versions: 1 2 3 4 5 6 7 8 9 10 11 12 13 14 15 16 17 18 19 20 21 22 23 24 25 26 27 28 29 30 31 32 33 34 35 36 37 38 39 40 41 42 43 44 45 46 47 48 49 50
000
AXUS43 KLBF 240510
MISLBF


WESTERN AND NORTH CENTRAL NEBRASKA HOURLY WEATHER ROUNDUP
NATIONAL WEATHER SERVICE NORTH PLATTE NE
1200 AM CDT THU JUL 24 2014

***STATIONS NOT REPORTING VARIABLES SUCH AS SKY/WEATHER OR
PRESSURE ARE PROVIDED BY THE NEBRASKA DEPARTMENT OF
ROADS...RAWS...AND APRS NETWORKS...AND ARE NOT UNDER
NATIONAL WEATHER SERVICE QUALITY CONTROL***

...OBSERVATIONS IN AND NEAR THE EASTERN PANHANDLE OF NEBRASKA...

CITY           SKY/WX    TMP DP  RH WIND       PRES   REMARKS
PINE RIDGE     CLEAR     75  62  64 S18G29    30.03F
CHADRON        CLEAR     78  65  63 S24G30    30.00F
ALLIANCE       CLEAR     72  64  76 SE24      30.10F
SIDNEY         CLEAR     73  62  68 SE9       30.17F
WHITECLAY        N/A     75  62  63 S18         N/A
RUSHVILLE        N/A     75  65  70 S20         N/A
GORDON           N/A     77  64  62 S24         N/A
CRESCENT LAKE    N/A     70  63  79 SE13        N/A
LISCO            N/A     77  66  68 E13         N/A
BIG SPRINGS      N/A     73  67  81 SE8         N/A
$$

...OBSERVATIONS IN NORTH CENTRAL NEBRASKA...

CITY           SKY/WX    TMP DP  RH WIND       PRES   REMARKS
VALENTINE      PTCLDY    72  58  61 SE14      30.12S
THEDFORD       PTCLDY    69  61  75 SE9       30.15F
AINSWORTH      PTCLDY    67  58  72 SE12      30.15S
O`NEILL        CLEAR     68  58  70 SE10      30.17S
ORD            CLEAR     65  61  87 E5        30.15F
BROKEN BOW     PTCLDY    67  62  84 SE8       30.16F
BROWNLEE         N/A     72  58  62 SE16        N/A
SPRINGVIEW       N/A     69  60  72 E5          N/A
DUNNING          N/A     67  64  91 S5          N/A
ROSE             N/A     70  65  83 E12         N/A
NEWPORT          N/A     65  61  86 SE7         N/A
SARGENT          N/A     67  61  80 CALM        N/A
COMSTOCK         N/A     71  66  85 SE6         N/A
CHAMBERS         N/A     66  58  77 CALM        N/A
EWING            N/A     64  58  82 CALM        N/A
$$

...OBSERVATIONS IN SOUTHWEST NEBRASKA AND FAR NORTHEAST COLORADO...

CITY           SKY/WX    TMP DP  RH WIND       PRES   REMARKS
WRAY             N/A     79  61  54 E8        30.16S
HOLYOKE        FAIR      73  68  83 SE10      30.17S
IMPERIAL       CLEAR     69  64  84 SE14      30.16F
OGALLALA       CLEAR     68  63  84 SE7       30.16S
NORTH PLATTE   CLEAR     66  62  87 E8        30.15F
MCCOOK         CLEAR     70  63  78 E9        30.15F
LEXINGTON      CLEAR     68  62  79 SE9       30.17S
PAXTON           N/A     69  65  88 SE3         N/A
SUTHERLAND       N/A     69  65  90 SE8         N/A
BRADY            N/A     67  61  80 CALM        N/A
GOTHENBURG       N/A     67  60  77 SE3         N/A
CALLAWAY         N/A     66  63  89 SE12        N/A
$$

...NORTH PLATTE AREA...

CITY           SKY/WX    TMP DP  RH WIND       PRES   REMARKS
AIRPORT        CLEAR     66  62  87 E8        30.15F
$$

...SOME WEATHER OBSERVATIONS FROM AROUND THE REGION...

CITY           SKY/WX    TMP DP  RH WIND       PRES   REMARKS
DENVER         MOCLDY    72  47  40 S6        30.22F
LARAMIE        MOCLDY    65  44  46 SW5       30.34S
CHEYENNE       LGT RAIN  74  47  38 S14       30.22F
SCOTTSBLUFF    CLEAR     74  65  73 E10       30.08F
RAPID CITY     PTCLDY    69  63  81 S8        30.03F
PIERRE         CLEAR     71  57  61 SE15      30.08S
WINNER         FAIR      68  57  68 SE8       30.10F
SIOUX FALLS    CLEAR     65  57  75 E7        30.18R
OMAHA          CLEAR     74  62  66 SE6       30.17S
GRAND ISLAND   CLEAR     67  61  81 SE5       30.17F
KANSAS CITY    CLEAR     73  62  68 E8        30.15R
WICHITA        CLEAR     76  65  68 SE7       30.13S
HAYS           CLEAR     72  59  64 E10       30.16S
LIBERAL        PTCLDY    81  68  65 SE13G18   30.19S
GOODLAND       MOCLDY    73  64  73 SE9       30.20S
$$



USA.gov is the U.S. government's official web portal to all federal, state and local government web resources and services.